Fredericksburg, VA

5:13 AM EDT on May 23, 2017 (GMT -0400)
Shannon

Weather History for KEZF - March, 2013

Change the Weather History Date:

Thursday, March 21, 2013

  Actual Average (KNYG) Record (KNYG)
Temperature  
Mean Temperature 38 °F -  
Max Temperature 45 °F 53 °F 72 °F (2012)
Min Temperature 30 °F 35 °F 28 °F (2009)
Degree Days  
Heating Degree Days 27    
Moisture  
Dew Point 17 °F    
Average Humidity 47    
Maximum Humidity 77    
Minimum Humidity 30    
Precipitation  
Precipitation 0.00 in - - ()
Sea Level Pressure  
Sea Level Pressure 29.82 in    
Wind  
Wind Speed - (North)    
Max Wind Speed -    
Max Gust Speed -    
Visibility 10 miles    
Events      
Averages and records for this station are not official NWS values.
T = Trace of Precipitation, MM = Missing Value Source: NWS Daily Summary

Daily Weather History Graph

Daily Weather History Graph

Search for Another Location

Airport or City:

Trip Planner

Search our weather history database for the weather conditions in past years. The results will help you decide how hot, cold, wet, or windy it might be!

Date:

Astronomy

Mar. 21, 2013 Rise Set
Actual Time 7:11 AM EDT 7:22 PM EDT
Civil Twilight 6:45 AM EDT 7:49 PM EDT
Nautical Twilight 6:14 AM EDT 8:20 PM EDT
Astronomical Twilight 5:42 AM EDT 8:51 PM EDT
Moon 1:54 PM EDT (3/21) 3:27 AM EDT (3/21)
Length of Visible Light 13h 04m
Length of Day
12h 11m
Waxing Gibbous, 68% of the Moon is Illuminated
Mar 21
Waxing Gibbous
Mar 27
Full
Apr 3
Last Quarter
Apr 10
New
Apr 18
First Quarter

Hourly Weather History & Observations

Time (EDT) Temp. Dew Point Humidity Pressure Visibility Wind Dir Wind Speed Gust Speed Precip Events Conditions
12:15 AM 45.3 °F 22.3 °F 40% 29.78 in 10.0 mi North - - N/A   Mostly Cloudy
12:35 AM 43.2 °F 26.4 °F 52% 29.79 in 10.0 mi North - - N/A   Scattered Clouds
12:55 AM 42.1 °F 27.0 °F 55% 29.79 in 10.0 mi North - - N/A   Scattered Clouds
1:15 AM 40.8 °F 25.9 °F 55% 29.80 in 10.0 mi North - - N/A   Scattered Clouds
1:35 AM 39.9 °F 26.1 °F 58% 29.79 in 10.0 mi North - - N/A   Scattered Clouds
1:55 AM 39.4 °F 27.5 °F 62% 29.78 in 10.0 mi North - - N/A   Clear
2:35 AM 38.3 °F 26.4 °F 62% 29.78 in 10.0 mi North - - N/A   Clear
2:55 AM 37.6 °F 26.6 °F 65% 29.78 in 10.0 mi North - - N/A   Clear
3:15 AM 37.4 °F 27.0 °F 66% 29.78 in 10.0 mi North - - N/A   Scattered Clouds
3:35 AM 37.0 °F 25.7 °F 64% 29.78 in 10.0 mi North - - N/A   Mostly Cloudy
3:55 AM 36.5 °F 25.7 °F 65% 29.78 in 10.0 mi North - - N/A   Mostly Cloudy
4:15 AM 35.6 °F 25.7 °F 67% 29.78 in 10.0 mi North - - N/A   Scattered Clouds
4:35 AM 35.1 °F 26.6 °F 71% 29.79 in 10.0 mi North - - N/A   Scattered Clouds
4:55 AM 34.9 °F 28.0 °F 76% 29.80 in 10.0 mi North - - N/A   Mostly Cloudy
5:15 AM 34.7 °F 27.1 °F 74% 29.81 in 10.0 mi North - - N/A   Overcast
5:35 AM 34.3 °F 26.6 °F 73% 29.81 in 10.0 mi North - - N/A   Overcast
5:55 AM 33.8 °F 27.3 °F 77% 29.81 in 10.0 mi North - - N/A   Overcast
6:15 AM 34.0 °F 26.6 °F 74% 29.81 in 10.0 mi North - - N/A   Overcast
6:35 AM 34.0 °F 26.1 °F 73% 29.81 in 10.0 mi North - - N/A   Overcast
6:55 AM 33.8 °F 25.3 °F 71% 29.81 in 10.0 mi North - - N/A   Overcast
7:15 AM 33.8 °F 24.8 °F 70% 29.82 in 10.0 mi North - - N/A   Overcast
7:35 AM 34.0 °F 24.8 °F 69% 29.82 in 10.0 mi North - - N/A   Overcast
7:55 AM 34.3 °F 24.1 °F 66% 29.82 in 10.0 mi North - - N/A   Mostly Cloudy
8:15 AM 34.7 °F 20.3 °F 56% 29.82 in 10.0 mi North - - N/A   Scattered Clouds
8:35 AM 34.5 °F 16.5 °F 48% 29.81 in 10.0 mi North - - N/A   Scattered Clouds
8:55 AM 34.3 °F 16.5 °F 48% 29.81 in 10.0 mi North - - N/A   Scattered Clouds
9:15 AM 34.0 °F 16.5 °F 49% 29.81 in 10.0 mi North - - N/A   Mostly Cloudy
9:35 AM 34.5 °F 15.6 °F 46% 29.81 in 10.0 mi North - - N/A   Scattered Clouds
9:55 AM 35.4 °F 16.0 °F 45% 29.81 in 10.0 mi North - - N/A   Mostly Cloudy
10:15 AM 35.1 °F 16.0 °F 46% 29.82 in 10.0 mi North - - N/A   Scattered Clouds
10:35 AM 35.4 °F 17.1 °F 47% 29.81 in 10.0 mi North - - N/A   Scattered Clouds
10:55 AM 36.0 °F 17.1 °F 46% 29.81 in 10.0 mi North - - N/A   Mostly Cloudy
11:15 AM 37.8 °F 16.7 °F 42% 29.81 in 10.0 mi North - - N/A   Overcast
11:35 AM 39.2 °F 16.7 °F 40% 29.80 in 10.0 mi North - - N/A   Mostly Cloudy
11:55 AM 38.1 °F 14.7 °F 39% 29.79 in 10.0 mi North - - N/A   Mostly Cloudy
12:15 PM 37.6 °F 14.0 °F 38% 29.78 in 10.0 mi North - - N/A   Mostly Cloudy
12:35 PM 39.7 °F 12.4 °F 33% 29.78 in 10.0 mi North - - N/A   Mostly Cloudy
12:55 PM 39.2 °F 13.1 °F 34% 29.78 in 10.0 mi North - - N/A   Mostly Cloudy
1:15 PM 40.5 °F 12.9 °F 33% 29.77 in 10.0 mi North - - N/A   Mostly Cloudy
1:35 PM 38.8 °F 12.6 °F 34% 29.77 in 10.0 mi North - - N/A   Scattered Clouds
1:55 PM 39.7 °F 12.9 °F 33% 29.77 in 10.0 mi North - - N/A   Scattered Clouds
2:15 PM 38.8 °F 12.4 °F 34% 29.76 in 10.0 mi North - - N/A   Scattered Clouds
2:35 PM 40.3 °F 13.3 °F 33% 29.76 in 10.0 mi North - - N/A   Scattered Clouds
2:55 PM 39.7 °F 11.5 °F 31% 29.76 in 10.0 mi North - - N/A   Clear
3:15 PM 39.6 °F 11.1 °F 31% 29.77 in 10.0 mi North - - N/A   Clear
3:35 PM 39.0 °F 10.0 °F 30% 29.77 in 10.0 mi North - - N/A   Scattered Clouds
3:55 PM 39.2 °F 10.0 °F 30% 29.77 in 10.0 mi North - - N/A   Scattered Clouds
4:35 PM 39.4 °F 10.0 °F 30% 29.78 in 10.0 mi North - - N/A   Clear
4:55 PM 38.7 °F 9.7 °F 30% 29.80 in 10.0 mi North - - N/A   Scattered Clouds
5:15 PM 38.5 °F 11.7 °F 33% 29.81 in 10.0 mi North - - N/A   Mostly Cloudy
5:35 PM 36.5 °F 11.7 °F 36% 29.82 in 10.0 mi North - - N/A   Scattered Clouds
5:55 PM 36.5 °F 11.3 °F 35% 29.83 in 10.0 mi North - - N/A   Scattered Clouds
6:15 PM 36.0 °F 9.9 °F 34% 29.83 in 10.0 mi North - - N/A   Scattered Clouds
6:35 PM 35.1 °F 9.3 °F 34% 29.84 in 10.0 mi North - - N/A   Scattered Clouds
6:55 PM 34.9 °F 10.2 °F 36% 29.86 in 10.0 mi North - - N/A   Scattered Clouds
7:15 PM 34.3 °F 9.7 °F 36% 29.86 in 10.0 mi North - - N/A   Clear
7:35 PM 33.8 °F 9.9 °F 37% 29.87 in 10.0 mi North - - N/A   Clear
7:55 PM 33.6 °F 9.9 °F 37% 29.87 in 10.0 mi North - - N/A   Scattered Clouds
8:15 PM 32.9 °F 10.0 °F 39% 29.88 in 10.0 mi North - - N/A   Clear
8:35 PM 32.4 °F 9.9 °F 39% 29.88 in 10.0 mi North - - N/A   Clear
8:55 PM 32.2 °F 9.7 °F 39% 29.89 in 10.0 mi North - - N/A   Clear
9:35 PM 32.2 °F 9.3 °F 39% 29.91 in 10.0 mi North - - N/A   Clear
9:55 PM 32.0 °F 9.5 °F 39% 29.92 in 10.0 mi North - - N/A   Clear
10:15 PM 32.0 °F 9.9 °F 40% 29.93 in 10.0 mi North - - N/A   Clear
10:35 PM 31.5 °F 10.4 °F 42% 29.93 in 10.0 mi North - - N/A   Clear
10:55 PM 31.6 °F 10.2 °F 41% 29.93 in 10.0 mi North - - N/A   Clear
11:15 PM 31.5 °F 10.2 °F 41% 29.93 in 10.0 mi North - - N/A   Clear
11:35 PM 31.1 °F 10.2 °F 42% 29.93 in 10.0 mi North - - N/A   Clear
11:55 PM 30.7 °F 10.6 °F 43% 29.93 in 10.0 mi North - - N/A   Clear